IRIDIUM 33 DEB, 34648

Orbit data source: Space-Track

IRIDIUM 33 DEB, 34648 is space debris in LEO originally from a launch on Sun, 14 Sep 1997 UTC launched from the Tyuratam Missile And Space Complex (TTMTR). The debris from Iridium 33, an American commercial communications satellite, has been tracked extensively since its accidental collision with the defunct Russian satellite Cosmos 2251 in 2009. This event, occurring at high speed in low Earth orbit (LEO), generated thousands of pieces of space debris, significantly increasing the risk of further collisions. The Iridium 33 debris cloud has impacted space traffic management and orbital debris mitigation strategies, making it a subject of ongoing study in space situational awareness.

Loading next visibility...
Identifier
34648, 1997-051JZ
Orbit
LEO
Country
Flag of USUS
Related business
Manufacturer
Unknown
Mission
Spacecraft
Bus & Motor
Unknown
Mass
Unknown
Launch date (UTC)
1997-09-14 (29 years ago)
Launch vehicle
Unknown
Launch site
Tyuratam Missile And Space Complex (TTMTR)
Object type
Payload
Rocket body
Debris
Shape & HBR
Unknown shape, 0.1 m
Radar Cross Section
Medium (>0.1 m² and <1 m²)

Expand to show TLE details & history
Last TLE update: 10 hours ago

TLE from 10 hours ago
0 IRIDIUM 33 DEB
1 34648U 97051JZ  26208.90306925  .00003928  00000-0  17690-2 0  9996
2 34648  86.3983 189.9993 0166109 302.7912  55.7363 14.15022389881707
Epoch: 2026-07-27T21:40Z
TLE epoch observation values (Epoch: 2026-07-27T21:40:25.183Z)
Latitude
-0.00005°
Longitude
-80.6856°
Altitude
779.103 km
Speed
7.498 km/s
True Right ascension
12h 39m 59s
True Declination
0° 00' 00"
Sunlit
Object was in daylight at epoch
Visualization orbit readout
Latitude
Unknown
Longitude
Unknown
Altitude
Unknown
Speed
Unknown
Apparent Right ascension
Unknown
Apparent Declination
Unknown
Sunlit
N/A
Visualization observer readout
Local Sidereal Time
21:17:53
Azimuth
Unknown
Elevation
Unknown
Doppler factor
Unknown
Orbital elements
Apogee altitude
959.113 km
Perigee altitude
719.34 km
Semi-major axis
7,217.363 km
Eccentricity
0.01661
Inclination
86.3983°
RAAN
189.9993°
Arg. of periapsis
302.7912°
True anomaly
57.32783°
Mean anomaly
55.7363°
Eccentric anomaly
56.53021°
Mean motion
3.53977 °/min
Orbital period
101.7 mins
BSTAR
0.001769
Loading maneuver chart data...
Computing Atmospheric mass density...
Loading historical data...
Loading historical data...
Loading historical data...
Loading historical data...
Loading historical data...
Loading historical data...
Loading historical data...

Documentation

Showing up to 5 results
|